INFLATESAIL

Last updated on Mon Sep 04 2017 00:19:20 GMT+0000 (Coordinated Universal Time)

1 42770U 17036F 17245.93730135 .99999999 00000-0 73960-1 0 9995 2 42770 97.4262 306.2162 0014869 278.7167 80.9844 16.07641391 10932

Satellite not in orbit